Lamar, CO

3:53 AM MST on February 27, 2017 (GMT -0700)
Lamar Municipal

Weather History for KLAA - January, 2013

Change the Weather History Date:

Friday, January 11, 2013

  Actual Average Record
Temperature  
Mean Temperature 36 °F 28 °F  
Max Temperature 58 °F 44 °F 73 °F (1990)
Min Temperature 13 °F 13 °F -20 °F (1962)
Degree Days  
Heating Degree Days 29 37  
Month to date heating degree days 420 407  
Since 1 July heating degree days 2570 2720  
Cooling Degree Days 0 0  
Month to date cooling degree days 0 0  
Year to date cooling degree days 0 0  
Moisture  
Dew Point 17 °F    
Average Humidity 58    
Maximum Humidity 100    
Minimum Humidity 15    
Precipitation  
Precipitation 0.00 in 0.00 in 0.05 in (1997)
Month to date precipitation T 0.06  
Year to date precipitation T 0.06  
Sea Level Pressure  
Sea Level Pressure 29.58 in    
Wind  
Wind Speed 16 mph (SW)    
Max Wind Speed 43 mph    
Max Gust Speed 56 mph    
Visibility 10 miles    
Events      
T = Trace of Precipitation, MM = Missing Value Source: NWS Daily Summary

Daily Weather History Graph

Daily Weather History Graph

Search for Another Location

Airport or City:

Trip Planner

Search our weather history database for the weather conditions in past years. The results will help you decide how hot, cold, wet, or windy it might be!

Date:

Astronomy

Jan. 11, 2013 Rise Set
Actual Time 7:06 AM MST 4:51 PM MST
Civil Twilight 6:37 AM MST 5:20 PM MST
Nautical Twilight 6:05 AM MST 5:52 PM MST
Astronomical Twilight 5:33 AM MST 6:24 PM MST
Moon 6:42 AM MST (1/11) 5:10 PM MST (1/11)
Length of Visible Light 10h 42m
Length of Day
9h 44m
Waning Crescent, 0% of the Moon is Illuminated
Jan 11
Waning Crescent
Jan 11
New
Jan 18
First Quarter
Jan 26
Full
Feb 3
Last Quarter

Hourly Weather History & Observations

Time (MST) Temp. Windchill Dew Point Humidity Pressure Visibility Wind Dir Wind Speed Gust Speed Precip Events Conditions
12:53 AM 30.9 °F 27.5 °F 28.9 °F 92% 29.49 in 10.0 mi WSW 3.5 mph - N/A   Clear
1:53 AM 30.0 °F 26.5 °F 28.0 °F 92% 29.49 in 10.0 mi SW 3.5 mph - N/A   Clear
2:53 AM 26.1 °F 20.5 °F 23.0 °F 88% 29.50 in 10.0 mi WSW 4.6 mph - N/A   Clear
3:53 AM 28.9 °F 22.8 °F 21.9 °F 75% 29.47 in 10.0 mi SSW 5.8 mph - N/A   Clear
4:53 AM 27.0 °F 20.5 °F 21.9 °F 81% 29.45 in 10.0 mi ESE 5.8 mph - N/A   Clear
5:53 AM 23.0 °F 17.0 °F 21.0 °F 92% 29.45 in 10.0 mi NE 4.6 mph - N/A   Clear
6:53 AM 39.9 °F 30.5 °F 28.0 °F 63% 29.40 in 10.0 mi SSW 19.6 mph - N/A   Clear
7:53 AM 44.1 °F 36.2 °F 27.0 °F 51% 29.38 in 10.0 mi South 18.4 mph - N/A   Clear
8:53 AM 48.9 °F - 26.1 °F 41% 29.36 in 10.0 mi SSW 27.6 mph 36.8 mph N/A   Clear
9:53 AM 52.0 °F - 24.1 °F 34% 29.34 in 10.0 mi SSW 32.2 mph 40.3 mph N/A   Clear
10:53 AM 55.9 °F - 19.9 °F 25% 29.32 in 10.0 mi SSW 32.2 mph 47.2 mph N/A   Partly Cloudy
2:53 PM 45.0 °F 34.7 °F -0.0 °F 15% 29.50 in 10.0 mi West 33.4 mph 47.2 mph N/A   Clear
3:53 PM 43.0 °F 32.0 °F -2.9 °F 15% 29.57 in 10.0 mi WSW 33.4 mph 43.7 mph N/A   Clear
4:53 PM 39.0 °F 28.0 °F -2.0 °F 18% 29.65 in 10.0 mi West 25.3 mph 32.2 mph N/A   Clear
5:53 PM 35.1 °F 23.3 °F -0.9 °F 22% 29.70 in 10.0 mi WSW 23.0 mph - N/A   Clear
6:53 PM 30.9 °F 21.2 °F 10.0 °F 42% 29.80 in 10.0 mi NNE 12.7 mph 20.7 mph N/A   Clear
7:53 PM 24.1 °F 17.0 °F 18.0 °F 77% 29.81 in 10.0 mi East 5.8 mph - N/A   Clear
8:53 PM 23.0 °F - 18.0 °F 81% 29.83 in 10.0 mi Calm Calm - N/A   Clear
9:53 PM 19.0 °F 10.0 °F 15.1 °F 85% 29.85 in 10.0 mi South 6.9 mph - N/A   Clear
10:53 PM 17.1 °F 11.7 °F 14.0 °F 88% 29.86 in 10.0 mi SW 3.5 mph - N/A   Clear
11:53 PM 14.0 °F - 10.9 °F 88% 29.87 in 10.0 mi Calm Calm - N/A   Clear